Overview Statistics Trail Chart Weather Telemetry Raw packets
 

This is the latest recevied weather packets stored in our database for station/object KI6SYE. If no packets are shown the sender has not sent any weather packets the latest 10 day(s).

<< 85 86 87 88 89 90 91 >>
Time Temp. Humidity Pressure Rain* Wind** Luminosity Snow
1788055433 23.33° C 83% 1009.6 hPa 0 mm - 16 W/m² -
1788055128 23.89° C 82% 1009.5 hPa 0 mm - 20 W/m² -
1788054823 23.89° C 82% 1009.5 hPa 0 mm - 23 W/m² -
1788054518 24.44° C 81% 1009.4 hPa 0 mm - 30 W/m² -
1788054215 24.44° C 80% 1009.5 hPa 0 mm - 35 W/m² -
1788053910 24.44° C 81% 1009.6 hPa 0 mm - 35 W/m² -
1788053605 24.44° C 81% 1009.7 hPa 0 mm - 39 W/m² -
1788053300 24.44° C 80% 1009.6 hPa 0 mm - 41 W/m² -
1788052996 24.44° C 80% 1009.5 hPa 0 mm - 41 W/m² -
1788052693 24.44° C 80% 1009.5 hPa 0 mm - 44 W/m² -
1788052393 24.44° C 81% 1009.5 hPa 0 mm - 79 W/m² -
1788052088 24.44° C 83% 1009.8 hPa 0 mm - 61 W/m² -
1788051788 24.44° C 84% 1009.7 hPa 0 mm - 60 W/m² -
1788051483 24.44° C 85% 1009.9 hPa 0 mm - 70 W/m² -
1788051181 24.44° C 85% 1009.8 hPa 0 mm - 113 W/m² -
1788050880 24.44° C 85% 1009.7 hPa 0 mm - 134 W/m² -
1788050576 24.44° C 86% 1009.9 hPa 0 mm - 156 W/m² -
1788050270 25° C 84% 1009.8 hPa 0 mm - 100 W/m² -
1788049965 24.44° C 84% 1009.8 hPa 0 mm - 185 W/m² -
1788049662 25° C 84% 1009.7 hPa 0 mm - 176 W/m² -
1788049358 25° C 83% 1009.8 hPa 0 mm - 149 W/m² -
1788049052 25° C 83% 1009.8 hPa 0 mm - 207 W/m² -
1788048748 25° C 83% 1010 hPa 0 mm - 225 W/m² -
1788048446 25° C 83% 1009.7 hPa 0 mm - 237 W/m² -
1788048146 25.56° C 83% 1010.1 hPa 0 mm - 250 W/m² -

* Rain latest hour (hover to see other rain measurements)
** Current wind speed in m/s (hover to see current wind gust speed)